Tracking 28790 objects as of 18-Apr-2024
HD Live streaming from Space Station
objects crossing your sky now

KOMPSAT 3

Track KOMPSAT 3 now!
10-day predictions
KOMPSAT 3 is classified as:


NORAD ID: 38338
Int'l Code: 2012-025B
Perigee: 683.6 km
Apogee: 700.0 km
Inclination: 98.3 °
Period: 98.5 minutes
Semi major axis: 7062 km
RCS: 5.2993 m2 (large)
Launch date: May 17, 2012
Source: South Korea (SKOR)
Launch site: TANEGASHIMA SPACE CENTER (TNSTA)
Your satellite tracking list
Your tracking list is empty




NASA's NSSDC Master Catalog

Two Line Element Set (TLE):
1 38338U 12025B   24109.49097426  .00002123  00000-0  42658-3 0  9998
2 38338  98.2569  55.7252 0011620  68.9309 291.3134 14.62636495636012
Source of the keplerian elements: AFSPC